Home   Weather   Christiansted   Past weeks
Flag for US Virgin Islands

Past Weather in Christiansted, US Virgin Islands — Yesterday and Last 2 Weeks

Now
80 °F

Overcast.


Feels Like: 85 °F
Forecast: 87 / 79 °F
Wind: 13 mph from Northeast

Location: Christiansted / Henry E. Rohlsen Airport - Saint Croix

Current Time: Jun 19, 2019 at 1:45:48 am

Latest Report: Jun 19, 2019 at 12:53 am


Visibility: 10 mi

Pressure: 30.07 "Hg

Humidity: 85%

Dew Point: 75 °F

Location of ChristianstedLocation

Past Weather in Christiansted — Graph

°F

Christiansted Temperature Yesterday

Maximum temperature yesterday: 89 °F (at 12:53 pm)
Minimum temperature yesterday: 78 °F (at 2:53 am)
Average temperature yesterday: 82 °F

High & Low Weather Summary for the Past Weeks

 TemperatureHumidityPressure
High89 °F (Jun 17, 1:53 pm)94% (Jun 4, 2:53 am)30.11 "Hg (Jun 4, 2:53 am)
Low76 °F (Jun 4, 2:53 am)57% (Jun 12, 1:53 pm)29.95 "Hg (Jun 6, 5:53 pm)
Average82 °F76%30.04 "Hg
* Reported Jun 4 12:53 am — Jun 19 12:42 am, Christiansted. Weather by CustomWeather, © 2019

Note: Actual official high and low records may vary slightly from our data, if they occured in-between our weather recording intervals... More about our weather records

Advertising

Christiansted Weather History for the Previous 24 Hours

Scroll right to see more
 ConditionsComfort  
Time TempWeatherWind HumidityBarometerVisibility
12:42 am
Wed, Jun 19
80 °FMostly cloudy.13 mph85%30.08 "Hg10 mi
12:13 am80 °FMostly cloudy.13 mph81%30.10 "Hg10 mi
10:53 pm
Tue, Jun 18
80 °FMostly cloudy.13 mph81%30.11 "Hg10 mi
9:53 pm80 °FPartly cloudy.13 mph81%30.09 "Hg10 mi
8:53 pm81 °FPassing clouds.10 mph79%30.09 "Hg10 mi
7:53 pm81 °FPassing clouds.14 mph77%30.07 "Hg10 mi
6:53 pm81 °FScattered clouds.12 mph77%30.06 "Hg10 mi
5:53 pm83 °FScattered clouds.15 mph70%30.05 "Hg10 mi
4:53 pm84 °FPassing clouds.14 mph70%30.04 "Hg10 mi
3:53 pm87 °FPassing clouds.17 mph61%30.04 "Hg9 mi
2:53 pm88 °FPassing clouds.21 mph59%30.04 "Hg10 mi
1:53 pm88 °FScattered clouds.21 mph61%30.05 "Hg9 mi
12:53 pm89 °FScattered clouds.21 mph59%30.07 "Hg8 mi
11:53 am88 °FScattered clouds.18 mph65%30.08 "Hg10 mi
10:53 am87 °FScattered clouds.21 mph67%30.09 "Hg7 mi
9:53 am85 °FScattered clouds.16 mph72%30.10 "Hg10 mi
8:53 am84 °FScattered clouds.14 mph72%30.09 "Hg10 mi
8:34 am84 °FScattered clouds.14 mph74%30.09 "Hg6 mi
7:53 am84 °FScattered clouds.16 mph70%30.08 "Hg9 mi
6:53 am80 °FBroken clouds.9 mph85%30.07 "Hg10 mi
5:53 am78 °FPassing clouds.8 mph84%30.05 "Hg10 mi
5:19 am78 °FPassing clouds.8 mph84%30.06 "Hg10 mi
4:53 am78 °FPassing clouds.7 mph82%30.06 "Hg10 mi
4:40 am78 °FPassing clouds.7 mph82%30.06 "Hg10 mi
3:53 am78 °FPassing clouds.8 mph82%30.06 "Hg10 mi
3:34 am78 °FPassing clouds.8 mph82%30.06 "Hg10 mi
2:53 am78 °FClear.7 mph82%30.06 "Hg10 mi
2:12 am79 °FPassing clouds.12 mph82%30.06 "Hg10 mi
1:53 am79 °FPassing clouds.13 mph82%30.06 "Hg10 mi
1:44 am79 °FPassing clouds.13 mph82%30.07 "Hg10 mi
Weather by CustomWeather, © 2019

See weather overview